EW6552 Weather Reports


Display with metric or nautical units.
time (UTC)temp
F
wind
direction
speed
MPH
gust
MPH
rain 1hr
in
rain 24hr
in
rain mn
in
humidity
%
barometer
mb
20260503213022 82 0.0 1.0 0.00 0.00 0.00 44 1009.5
20260503210023 81 0.0 5.0 0.00 0.00 0.00 46 1009.8
20260503203102 80 0.0 4.0 0.00 0.00 0.00 46 1010.3
20260503200016 79 0.0 5.0 0.00 0.00 0.00 46 1010.7
20260503193021 77 0.0 2.0 0.00 0.00 0.00 51 1011.0
20260503190022 75 0.0 9.0 0.00 0.00 0.00 52 1011.5
20260503183022 74 0.0 6.0 0.00 0.00 0.00 54 1011.8
20260503180017 71 0.0 5.0 0.00 0.00 0.00 58 1012.0
20260503173022 68 0.0 4.0 0.00 0.00 0.00 63 1012.1
20260503053018 59 0.0 0.0 0.00 0.00 0.00 79 1012.4
20260503050015 60 0.0 0.0 0.00 0.00 0.00 75 1012.3
20260503043020 62 0.0 0.0 0.00 0.00 0.00 72 1012.1
20260503040100 64 0.0 0.0 0.00 0.00 0.00 64 1011.6
20260503033021 68 0.0 3.0 0.00 0.00 0.00 55 1011.2
20260503030100 70 0.0 1.0 0.00 0.00 0.00 54 1010.9
20260503023015 72 0.0 0.0 0.00 0.00 0.00 52 1010.6
20260503020020 72 0.0 3.0 0.00 0.00 0.00 52 1010.5
20260503013015 73 0.0 5.0 0.00 0.00 0.00 53 1010.7
20260503010020 73 0.0 4.0 0.00 0.00 0.00 53 1010.6
20260503003035 73 0.0 1.0 0.00 0.00 0.00 54 1010.9
20260503000021 74 0.0 6.0 0.00 0.00 0.00 54 1011.0
20260502233040 74 0.0 1.0 0.00 0.00 0.00 55 1011.4
20260502230042 73 0.0 1.0 0.00 0.00 0.00 57 1011.8
20260502223020 73 0.0 3.0 0.00 0.00 0.00 55 1012.2
20260502220020 74 0.0 4.0 0.00 0.00 0.00 55 1012.6